Wind_Speed
15 15 15 16 17 18 17 17 18 19 19 18 19 20 20 20 20 20 20 20 20 21 20 20 19 19 19 19 19 19 19 19 20 20 20 21 21 23 24 25 25 26 26 27
14 16 16 16 16 16 16 17 18 19 19 18 18 19 20 20 19 19 19 19 20 21 21 20 19 19 19 19 19 19 19 19 18 19 20 21 21 22 23 24 25 26 27 27
14 15 15 15 15 15 15 16 18 18 18 18 18 19 18 18 18 18 19 19 19 20 20 19 20 20 19 19 19 19 19 19 19 19 20 21 22 22 22 23 24 24 25 26
14 14 14 14 15 15 15 16 17 17 16 17 17 16 18 17 17 17 17 18 19 20 20 20 20 19 19 19 19 19 19 18 18 19 20 20 20 21 22 22 23 23 24 24
14 14 14 15 15 15 16 15 16 16 16 16 16 15 17 17 17 16 17 18 20 20 20 20 20 19 19 19 19 19 19 19 19 20 20 21 22 22 22 23 24 24 25 25
13 13 14 15 15 16 15 15 15 15 14 15 15 14 16 17 16 17 17 18 20 20 20 20 20 20 20 20 20 20 20 20 20 21 22 22 22 23 23 24 25 25 26 27
12 13 14 14 14 14 14 13 12 12 13 14 16 15 16 16 15 16 17 19 20 20 21 21 21 21 21 21 21 21 21 21 21 22 22 22 23 24 25 26 25 26 26 26
10 12 13 13 14 14 14 14 13 13 13 14 17 16 15 15 15 15 16 18 19 19 20 20 21 20 20 20 20 21 21 21 22 22 23 23 24 25 25 26 26 26 26 26
11 13 13 13 13 13 14 14 15 14 14 14 15 16 16 16 16 16 17 18 18 19 19 20 20 20 21 21 20 20 21 21 22 23 23 24 24 25 25 25 25 25 26 26
11 12 12 12 13 13 14 14 15 13 13 13 14 15 16 16 17 17 17 17 18 18 19 20 20 20 20 20 20 21 21 22 23 24 24 24 24 25 25 25 25 26 26 27
10 11 12 13 14 14 14 15 14 13 14 13 14 15 16 16 16 17 17 17 18 19 20 21 21 21 21 21 22 23 23 23 23 24 24 24 25 25 25 26 26 26 26 26
10 11 12 13 14 15 15 15 14 14 15 14 14 16 17 17 17 16 17 18 19 19 20 21 22 22 21 22 22 23 24 24 24 25 25 25 25 25 26 26 26 26 26 26
10 10 11 11 13 14 15 14 14 14 14 14 14 16 16 16 16 16 17 18 18 19 20 21 22 22 23 23 23 24 24 24 25 25 25 25 25 25 25 25 25 25 25 25
9 10 10 10 12 13 13 13 14 14 14 15 15 16 16 16 16 16 17 17 18 19 19 20 21 21 22 23 24 24 24 25 25 25 25 25 24 24 24 24 24 24 24 23
8 9 10 11 11 12 13 13 13 15 15 14 15 15 16 16 16 15 16 16 18 19 18 19 20 20 21 23 23 24 24 24 24 24 24 23 23 23 23 23 22 22 22 21
7 7 9 10 11 12 12 12 13 14 14 14 15 15 15 15 15 16 16 17 17 18 18 19 19 19 20 22 22 23 24 24 23 22 22 22 22 21 21 21 20 20 19 19
6 6 7 8 9 9 10 10 11 12 13 13 14 15 15 15 15 16 17 17 17 17 17 17 17 17 19 20 21 22 22 20 19 19 19 19 19 19 18 18 18 18 17 17
6 6 6 7 7 9 8 9 10 11 11 11 12 13 15 15 14 15 15 16 16 16 16 16 17 17 17 18 18 18 18 17 17 16 16 16 16 16 15 15 14 14 14 13
4 4 5 6 6 7 7 7 8 10 10 10 11 12 12 12 13 13 13 14 14 14 14 14 14 15 15 15 15 15 14 14 14 13 13 12 12 12 12 12 11 11 11 11
2 2 3 4 5 6 6 6 7 8 8 9 10 10 10 10 10 11 11 12 11 11 11 12 12 13 13 12 12 11 11 11 11 11 11 10 10 9 9 10 10 10 10 10
1 1 3 3 4 5 5 5 6 6 7 8 8 8 9 9 9 10 10 10 9 10 10 11 11 11 11 11 10 10 10 9 9 9 9 9 9 8 8 8 7 7 7 7
1 2 2 3 3 4 3 4 4 5 6 6 6 7 7 7 7 8 8 8 8 8 9 9 9 9 9 9 9 9 8 8 8 8 8 7 7 7 6 6 6 5 4 4
1 1 2 3 3 3 3 4 4 5 5 5 5 5 5 5 6 6 6 6 6 6 7 7 7 7 8 8 8 7 7 7 6 6 6 5 4 4 4 3 3 3 2 2
1 1 2 3 3 3 4 4 4 4 4 4 4 5 6 6 6 6 6 5 6 6 7 6 7 7 6 6 6 6 6 6 5 5 4 4 4 3 2 2 2 2 2 2
0 1 2 2 3 3 3 3 3 3 3 3 4 5 6 6 6 6 6 5 5 6 6 5 6 6 6 6 6 6 6 5 5 4 4 5 5 4 5 5 5 4 4 4
0 1 2 3 3 4 4 4 3 3 3 4 5 5 5 5 6 6 5 5 5 6 5 5 5 5 6 5 6 6 6 6 6 5 5 5 6 6 6 6 6 6 6 6
Wind_Direction
214 215 217 219 220 222 225 230 236 241 244 243 245 249 255 260 262 264 268 271 274 277 279 280 281 281 280 280 280 279 274 270 268 264 263 260 259 258 259 257 255 256 258 259
215 219 220 221 222 223 225 229 238 243 245 246 249 253 258 263 263 264 266 269 272 275 277 278 280 279 278 279 279 279 275 272 269 266 266 263 261 260 261 259 257 257 257 260
216 221 221 221 223 224 227 230 237 244 248 250 254 257 260 263 263 264 266 268 270 274 276 276 277 275 275 277 279 282 278 273 273 269 270 270 266 261 260 260 260 261 263 263
222 224 223 223 223 224 229 232 238 244 246 252 254 258 263 261 260 262 262 263 267 272 277 278 277 273 271 276 278 281 278 273 274 274 275 273 269 265 264 263 264 265 267 268
227 225 224 223 223 224 228 234 239 243 245 249 253 250 259 260 260 260 260 262 265 271 276 279 276 273 271 275 277 278 277 275 275 273 275 273 270 268 267 267 268 269 270 271
226 226 225 224 225 227 231 234 239 244 247 251 252 251 257 261 260 258 258 262 267 271 274 277 278 276 275 278 277 276 276 275 276 276 275 271 270 270 270 271 272 272 272 273
226 227 227 226 226 229 229 230 239 246 249 252 256 255 255 259 260 260 262 265 267 270 273 276 279 280 278 278 277 276 276 274 274 275 275 272 270 271 271 274 275 274 274 273
223 229 229 227 226 230 232 228 230 238 247 252 262 259 258 261 261 264 267 269 270 271 275 278 278 279 277 276 277 277 275 274 273 274 276 275 272 272 272 273 274 275 276 275
218 227 232 230 228 228 231 230 231 240 245 252 258 261 262 263 264 268 271 273 274 276 276 277 278 278 277 277 278 278 277 275 273 274 276 277 277 277 276 275 275 275 276 276
223 228 231 228 227 229 231 236 241 243 251 255 263 264 266 265 268 270 273 276 276 276 277 279 278 278 277 276 278 279 277 276 274 275 277 277 277 278 279 279 278 277 276 277
228 230 232 229 228 232 238 241 244 244 246 250 261 265 265 267 271 271 271 275 279 278 277 278 279 279 280 279 281 280 278 278 277 275 276 278 277 278 280 280 280 278 278 278
229 228 230 234 236 237 239 242 243 248 255 253 257 267 268 268 270 272 274 278 279 279 278 278 279 281 280 280 280 280 279 278 278 277 277 277 279 279 280 280 280 280 279 278
234 234 235 238 240 240 240 242 244 248 253 258 263 269 270 271 271 275 278 279 280 279 278 278 279 280 278 277 278 279 279 277 277 278 278 277 278 280 281 281 280 280 280 280
240 237 233 232 235 239 240 243 246 250 254 259 262 268 271 272 275 278 281 282 282 283 283 281 280 281 280 278 277 277 277 278 278 279 278 278 279 279 281 282 282 281 281 281
245 243 240 238 237 237 242 246 249 250 253 257 263 265 269 272 277 281 284 285 286 287 287 286 286 284 282 279 278 278 278 278 278 279 279 279 280 279 280 281 281 281 280 280
246 247 244 244 245 244 247 251 252 253 258 261 264 268 272 275 279 281 283 287 288 289 286 288 288 286 284 282 280 281 281 278 279 279 279 279 281 282 280 281 281 282 281 279
241 242 244 245 249 251 252 254 254 256 260 264 269 272 275 277 281 283 283 285 287 288 289 291 292 290 288 286 284 283 284 282 281 280 279 281 283 283 284 283 282 281 279 278
238 238 243 248 250 254 262 259 262 262 266 270 271 274 278 281 281 285 286 287 292 293 290 290 292 292 295 297 294 288 284 281 280 282 284 285 288 288 285 284 282 281 280 277
231 236 242 249 257 263 268 274 275 269 272 275 278 281 282 284 285 288 291 293 295 295 293 294 297 297 298 300 297 291 285 284 285 285 287 289 291 289 285 284 282 281 277 274
242 251 249 248 255 266 277 283 286 281 276 281 286 290 291 291 290 295 295 298 297 297 300 302 305 307 308 307 306 300 296 295 293 293 295 296 296 292 285 283 281 275 272 269
239 279 271 266 262 274 283 289 291 291 292 290 291 295 297 298 299 304 305 305 302 302 305 308 309 311 315 317 315 311 306 306 305 304 303 300 299 297 293 284 282 278 270 264
251 276 287 281 281 281 287 299 294 300 302 299 298 300 301 306 312 315 315 313 309 309 312 316 318 319 320 321 320 320 316 313 312 312 310 303 299 295 295 290 279 266 253 247
253 290 298 301 299 287 296 310 311 314 313 314 316 321 322 320 322 327 325 324 325 323 326 328 330 328 325 328 329 332 332 330 330 330 325 323 322 311 299 293 274 251 232 218
241 304 326 324 314 304 304 311 312 318 321 326 334 341 345 343 340 338 338 340 342 340 341 346 347 345 350 354 358 360 356 352 350 356 7 15 24 29 37 41 65 95 125 144
293 339 357 348 340 337 337 335 330 319 316 329 340 343 346 348 351 350 350 354 357 359 2 360 4 6 6 8 9 10 14 14 22 40 47 50 52 61 62 66 75 89 101 114
7 16 9 8 4 360 1 7 14 9 352 350 349 345 349 353 357 2 4 9 5 7 11 11 16 16 18 21 19 23 27 33 46 59 61 61 63 70 73 78 83 89 102 110
Height
5835 5838 5840 5842 5844 5847 5849 5851 5852 5852 5854 5856 5857 5858 5859 5860 5860 5861 5861 5861 5861 5861 5860 5859 5858 5857 5856 5855 5855 5853 5852 5851 5850 5850 5849 5849 5849 5849 5850 5850 5850 5851 5852 5852
5833 5835 5837 5838 5841 5843 5846 5847 5848 5849 5850 5852 5854 5855 5855 5856 5856 5857 5857 5857 5857 5856 5856 5855 5854 5853 5852 5851 5850 5849 5848 5847 5846 5845 5845 5845 5844 5844 5844 5845 5845 5845 5846 5846
5830 5832 5833 5836 5838 5840 5842 5845 5845 5846 5847 5849 5850 5851 5851 5852 5853 5853 5853 5853 5852 5852 5851 5851 5849 5849 5848 5847 5846 5845 5843 5842 5842 5841 5840 5840 5839 5839 5840 5840 5840 5840 5840 5841
5827 5828 5831 5833 5835 5837 5839 5841 5842 5843 5845 5846 5848 5849 5848 5848 5849 5849 5849 5849 5848 5848 5847 5846 5845 5844 5843 5842 5841 5840 5839 5838 5837 5836 5836 5835 5835 5835 5834 5834 5834 5835 5835 5835
5824 5826 5828 5830 5832 5834 5836 5837 5839 5840 5842 5843 5844 5846 5846 5844 5845 5845 5845 5844 5844 5843 5843 5841 5840 5839 5838 5838 5837 5836 5834 5833 5833 5832 5831 5830 5830 5830 5829 5829 5829 5829 5829 5829
5821 5823 5825 5826 5828 5830 5832 5835 5836 5837 5839 5841 5841 5843 5843 5841 5841 5841 5840 5840 5840 5839 5838 5837 5836 5834 5834 5833 5832 5831 5830 5829 5828 5827 5826 5825 5824 5824 5824 5823 5823 5823 5822 5822
5819 5820 5821 5823 5826 5828 5830 5833 5836 5837 5837 5839 5837 5838 5839 5837 5837 5837 5836 5836 5835 5835 5834 5832 5831 5830 5829 5828 5827 5826 5825 5824 5823 5822 5821 5820 5819 5818 5818 5817 5816 5816 5816 5815
5817 5819 5819 5820 5823 5825 5827 5830 5834 5836 5836 5836 5833 5833 5834 5833 5833 5833 5832 5831 5830 5830 5829 5827 5826 5825 5823 5822 5822 5820 5820 5819 5818 5817 5815 5814 5813 5812 5811 5810 5810 5809 5809 5808
5815 5816 5816 5818 5819 5822 5823 5826 5829 5830 5831 5831 5831 5830 5829 5829 5829 5828 5828 5827 5826 5825 5824 5822 5821 5820 5818 5817 5816 5815 5814 5813 5812 5811 5810 5808 5807 5806 5804 5803 5802 5802 5801 5801
5811 5813 5814 5815 5817 5818 5821 5822 5824 5826 5827 5828 5827 5826 5826 5825 5824 5824 5823 5822 5821 5820 5819 5817 5816 5815 5813 5812 5811 5810 5809 5808 5806 5805 5803 5802 5801 5800 5798 5797 5796 5795 5794 5793
5809 5810 5811 5812 5814 5816 5817 5819 5820 5822 5823 5824 5824 5825 5821 5820 5820 5819 5818 5817 5817 5815 5814 5812 5811 5809 5808 5807 5805 5804 5803 5801 5800 5799 5797 5796 5795 5793 5792 5791 5789 5788 5787 5786
5806 5807 5808 5809 5810 5812 5813 5814 5816 5818 5818 5818 5820 5821 5816 5816 5815 5815 5814 5812 5811 5810 5808 5807 5805 5804 5802 5801 5799 5798 5796 5795 5793 5792 5791 5790 5788 5787 5785 5784 5782 5781 5780 5779
5803 5804 5805 5807 5809 5809 5809 5811 5812 5813 5814 5814 5815 5816 5812 5811 5811 5810 5809 5807 5806 5804 5803 5801 5800 5798 5796 5795 5793 5792 5790 5788 5787 5785 5784 5783 5781 5780 5778 5777 5775 5774 5773 5772
5800 5801 5803 5805 5805 5805 5806 5807 5808 5809 5810 5810 5810 5810 5808 5807 5806 5805 5804 5802 5801 5799 5797 5795 5794 5792 5790 5788 5787 5785 5783 5782 5780 5778 5777 5776 5774 5773 5772 5770 5769 5768 5767 5766
5798 5798 5799 5800 5800 5801 5802 5803 5804 5804 5805 5805 5805 5804 5803 5802 5801 5800 5799 5797 5796 5794 5792 5790 5787 5785 5784 5782 5780 5778 5776 5775 5773 5772 5770 5769 5768 5767 5765 5764 5763 5762 5761 5759
5795 5796 5796 5797 5797 5798 5799 5799 5800 5800 5800 5800 5800 5800 5798 5797 5796 5795 5794 5792 5790 5789 5786 5784 5782 5779 5777 5775 5773 5771 5769 5768 5766 5765 5764 5763 5762 5760 5759 5758 5757 5756 5755 5754
5793 5794 5794 5795 5795 5795 5796 5796 5796 5796 5796 5796 5796 5796 5794 5793 5792 5790 5789 5787 5785 5783 5781 5779 5776 5774 5772 5770 5767 5765 5763 5762 5760 5759 5758 5757 5756 5755 5753 5752 5751 5750 5749 5749
5792 5792 5792 5793 5794 5793 5795 5793 5793 5792 5792 5792 5791 5790 5790 5788 5787 5786 5784 5782 5780 5778 5776 5774 5772 5769 5767 5765 5762 5760 5758 5757 5755 5754 5753 5752 5751 5750 5748 5748 5746 5746 5745 5744
5790 5790 5791 5791 5791 5791 5792 5790 5790 5789 5789 5788 5787 5786 5785 5784 5783 5781 5779 5778 5776 5773 5771 5769 5767 5765 5763 5761 5758 5756 5754 5752 5751 5750 5749 5748 5747 5746 5745 5744 5743 5742 5741 5741
5788 5789 5789 5789 5789 5790 5790 5788 5787 5787 5786 5785 5784 5783 5782 5780 5779 5778 5776 5774 5771 5769 5768 5766 5764 5762 5759 5757 5755 5752 5750 5749 5748 5747 5746 5744 5743 5742 5741 5740 5739 5739 5738 5738
5788 5788 5788 5788 5788 5787 5787 5786 5786 5786 5785 5782 5781 5780 5779 5777 5777 5775 5772 5770 5768 5767 5765 5763 5761 5759 5756 5754 5752 5750 5748 5747 5745 5744 5743 5742 5741 5740 5739 5738 5737 5736 5736 5736
5787 5787 5787 5787 5786 5788 5785 5784 5784 5783 5781 5780 5779 5778 5776 5775 5773 5772 5770 5768 5766 5764 5763 5761 5758 5756 5754 5752 5750 5748 5746 5745 5743 5742 5741 5739 5738 5737 5736 5736 5735 5734 5734 5735
5786 5787 5786 5786 5787 5785 5783 5783 5782 5780 5779 5778 5777 5776 5775 5773 5772 5770 5768 5766 5764 5763 5761 5759 5757 5754 5752 5750 5748 5746 5745 5743 5742 5740 5739 5738 5737 5736 5735 5734 5733 5733 5733 5734
5786 5785 5785 5784 5783 5782 5782 5781 5780 5779 5778 5777 5776 5775 5773 5772 5770 5769 5767 5765 5763 5761 5759 5757 5755 5753 5751 5749 5748 5746 5744 5743 5741 5740 5738 5737 5736 5736 5735 5734 5733 5733 5733 5734
5785 5785 5784 5783 5782 5781 5780 5779 5778 5777 5776 5776 5775 5774 5772 5771 5769 5768 5766 5764 5762 5760 5758 5757 5755 5753 5751 5749 5748 5746 5744 5743 5741 5740 5739 5738 5737 5736 5735 5735 5734 5734 5734 5735
5784 5784 5784 5783 5782 5781 5779 5778 5777 5776 5775 5774 5773 5772 5771 5770 5768 5767 5765 5764 5762 5760 5758 5756 5755 5753 5752 5750 5748 5746 5745 5744 5742 5741 5740 5739 5738 5738 5737 5737 5736 5736 5736 5736